Hourly Weather Acopiara

Today, 23 April, Friday

Time Temperature Precipitation Wind Pressure Humidity
00:00 +23°C° 0.1 mm 1 mps 732 mmHg 96%
01:00 +23°C° 0.5 mm 1 mps 732 mmHg 97%
02:00 +23°C° 0.5 mm 1 mps 732 mmHg 97%
03:00 +21°C° 0.5 mm 0 mps 732 mmHg 98%
04:00 +21°C° 0.1 mm 0 mps 732 mmHg 98%
05:00 +21°C° 0.1 mm 0 mps 732 mmHg 98%
06:00 +21°C° 0.1 mm 0 mps 732 mmHg 98%
07:00 +23°C° 0 mm 0 mps 733 mmHg 91%
08:00 +26°C° 0 mm 1 mps 733 mmHg 84%
09:00 +28°C° 0 mm 1 mps 733 mmHg 78%
10:00 +29°C° 0.2 mm 1 mps 733 mmHg 73%
11:00 +30°C° 0.2 mm 1 mps 733 mmHg 68%
12:00 +32°C° 0.2 mm 1 mps 732 mmHg 63%
13:00 +31°C° 0.4 mm 1 mps 731 mmHg 65%
14:00 +31°C° 0.4 mm 1 mps 731 mmHg 68%
15:00 +31°C° 0.4 mm 1 mps 730 mmHg 70%
16:00 +29°C° 0.1 mm 1 mps 730 mmHg 75%
17:00 +28°C° 0.1 mm 1 mps 730 mmHg 81%
18:00 +26°C° 0.1 mm 1 mps 730 mmHg 86%
19:00 +26°C° 0 mm 1 mps 731 mmHg 87%
20:00 +25°C° 0 mm 1 mps 731 mmHg 88%
21:00 +25°C° 0 mm 1 mps 731 mmHg 89%
22:00 +24°C° 0 mm 1 mps 731 mmHg 91%
23:00 +24°C° 0 mm 1 mps 731 mmHg 93%

Tomorrow, 24 April, Saturday

Time Temperature Precipitation Wind Pressure Humidity
00:00 +23°C° 0 mm 1 mps 732 mmHg 95%
01:00 +23°C° 0 mm 1 mps 731 mmHg 96%
02:00 +23°C° 0 mm 1 mps 731 mmHg 97%
03:00 +23°C° 0 mm 1 mps 731 mmHg 98%
04:00 +23°C° 0 mm 1 mps 731 mmHg 98%
05:00 +21°C° 0 mm 0 mps 732 mmHg 98%
06:00 +21°C° 0 mm 0 mps 732 mmHg 98%
07:00 +25°C° 0.1 mm 1 mps 732 mmHg 92%
08:00 +26°C° 0.1 mm 1 mps 733 mmHg 85%
09:00 +28°C° 0.1 mm 1 mps 733 mmHg 78%
10:00 +29°C° 0.1 mm 2 mps 733 mmHg 72%
11:00 +30°C° 0.1 mm 2 mps 732 mmHg 66%
12:00 +31°C° 0.1 mm 2 mps 732 mmHg 61%
13:00 +31°C° 0 mm 2 mps 731 mmHg 61%
14:00 +31°C° 0 mm 2 mps 731 mmHg 61%
15:00 +31°C° 0 mm 2 mps 730 mmHg 61%
16:00 +30°C° 0 mm 2 mps 730 mmHg 69%
17:00 +28°C° 0 mm 1 mps 730 mmHg 77%
18:00 +26°C° 0 mm 1 mps 730 mmHg 85%
19:00 +25°C° 0 mm 1 mps 731 mmHg 85%
20:00 +25°C° 0 mm 1 mps 731 mmHg 85%
21:00 +24°C° 0 mm 1 mps 731 mmHg 85%
22:00 +24°C° 0.1 mm 1 mps 731 mmHg 89%
23:00 +23°C° 0.1 mm 1 mps 732 mmHg 93%

Day after tomorrow, 25 April, Sunday

Time Temperature Precipitation Wind Pressure Humidity
00:00 +23°C° 0.1 mm 1 mps 732 mmHg 96%
01:00 +23°C° 0 mm 1 mps 731 mmHg 97%
02:00 +23°C° 0 mm 1 mps 731 mmHg 97%
03:00 +23°C° 0 mm 1 mps 731 mmHg 98%
04:00 +23°C° 0 mm 1 mps 731 mmHg 98%
05:00 +23°C° 0 mm 1 mps 732 mmHg 98%
06:00 +23°C° 0 mm 1 mps 732 mmHg 98%
07:00 +25°C° 0 mm 1 mps 732 mmHg 89%
08:00 +26°C° 0 mm 1 mps 733 mmHg 81%
09:00 +28°C° 0 mm 2 mps 733 mmHg 72%
10:00 +29°C° 0 mm 2 mps 732 mmHg 67%
11:00 +31°C° 0 mm 2 mps 732 mmHg 61%
12:00 +32°C° 0 mm 2 mps 732 mmHg 56%
13:00 +32°C° 0 mm 2 mps 731 mmHg 55%
14:00 +32°C° 0 mm 1 mps 730 mmHg 54%
15:00 +32°C° 0 mm 1 mps 729 mmHg 53%
16:00 +30°C° 0 mm 1 mps 730 mmHg 60%
17:00 +29°C° 0 mm 1 mps 730 mmHg 66%
18:00 +27°C° 0 mm 1 mps 730 mmHg 72%
19:00 +26°C° 0 mm 1 mps 730 mmHg 73%
20:00 +26°C° 0 mm 1 mps 731 mmHg 73%
21:00 +25°C° 0 mm 1 mps 731 mmHg 74%
22:00 +24°C° 0 mm 1 mps 731 mmHg 78%
23:00 +24°C° 0 mm 1 mps 731 mmHg 82%

26 April, Monday

Time Temperature Precipitation Wind Pressure Humidity
00:00 +23°C° 0 mm 1 mps 731 mmHg 86%
01:00 +23°C° 0 mm 1 mps 731 mmHg 90%
02:00 +23°C° 0 mm 1 mps 731 mmHg 94%
03:00 +22°C° 0 mm 1 mps 731 mmHg 98%
04:00 +22°C° 0 mm 1 mps 731 mmHg 98%
05:00 +20°C° 0 mm 0 mps 731 mmHg 98%
06:00 +20°C° 0 mm 0 mps 732 mmHg 98%
07:00 +24°C° 0 mm 1 mps 732 mmHg 92%
08:00 +25°C° 0 mm 1 mps 732 mmHg 87%
09:00 +27°C° 0 mm 1 mps 733 mmHg 81%
10:00 +28°C° 0.1 mm 1 mps 732 mmHg 74%
11:00 +30°C° 0.1 mm 1 mps 732 mmHg 67%
12:00 +31°C° 0.1 mm 1 mps 731 mmHg 61%
13:00 +32°C° 0 mm 1 mps 731 mmHg 58%
14:00 +32°C° 0 mm 1 mps 730 mmHg 55%
15:00 +32°C° 0 mm 1 mps 729 mmHg 53%
16:00 +31°C° 0 mm 1 mps 729 mmHg 59%
17:00 +29°C° 0 mm 1 mps 730 mmHg 66%
18:00 +27°C° 0 mm 1 mps 730 mmHg 72%
19:00 +26°C° 0 mm 1 mps 730 mmHg 73%
20:00 +25°C° 0 mm 1 mps 730 mmHg 73%
21:00 +25°C° 0 mm 1 mps 730 mmHg 74%
22:00 +24°C° 0 mm 1 mps 731 mmHg 76%
23:00 +24°C° 0 mm 1 mps 731 mmHg 79%

27 April, Tuesday

Time Temperature Precipitation Wind Pressure Humidity
00:00 +23°C° 0 mm 1 mps 731 mmHg 82%
01:00 +23°C° 0 mm 1 mps 731 mmHg 87%
02:00 +22°C° 0 mm 1 mps 731 mmHg 92%
03:00 +20°C° 0 mm 0 mps 731 mmHg 97%
04:00 +20°C° 0 mm 0 mps 731 mmHg 97%
05:00 +20°C° 0 mm 0 mps 731 mmHg 98%
06:00 +20°C° 0 mm 0 mps 732 mmHg 98%
07:00 +24°C° 0 mm 1 mps 732 mmHg 88%
08:00 +27°C° 0 mm 1 mps 732 mmHg 78%
09:00 +29°C° 0 mm 2 mps 733 mmHg 68%
10:00 +30°C° 0 mm 2 mps 732 mmHg 62%
11:00 +32°C° 0 mm 2 mps 732 mmHg 56%
12:00 +34°C° 0 mm 2 mps 731 mmHg 50%
13:00 +34°C° 0 mm 2 mps 730 mmHg 48%
14:00 +35°C° 0 mm 2 mps 729 mmHg 46%
15:00 +35°C° 0 mm 2 mps 729 mmHg 45%
16:00 +32°C° 0 mm 2 mps 729 mmHg 52%
17:00 +30°C° 0 mm 2 mps 729 mmHg 60%
18:00 +28°C° 0 mm 1 mps 729 mmHg 67%
19:00 +27°C° 0 mm 1 mps 729 mmHg 67%
20:00 +26°C° 0 mm 1 mps 730 mmHg 68%
21:00 +26°C° 0 mm 1 mps 730 mmHg 68%
22:00 +26°C° 0 mm 1 mps 730 mmHg 71%
23:00 +25°C° 0 mm 1 mps 731 mmHg 75%

28 April, Wednesday

Time Temperature Precipitation Wind Pressure Humidity
00:00 +25°C° 0 mm 1 mps 731 mmHg 78%
01:00 +24°C° 0.1 mm 1 mps 731 mmHg 84%
02:00 +24°C° 0.1 mm 1 mps 730 mmHg 90%
03:00 +23°C° 0.1 mm 1 mps 730 mmHg 96%
04:00 +23°C° 0 mm 1 mps 731 mmHg 97%
05:00 +21°C° 0 mm 0 mps 731 mmHg 97%
06:00 +21°C° 0 mm 0 mps 731 mmHg 98%
07:00 +25°C° 0 mm 1 mps 732 mmHg 89%
08:00 +27°C° 0 mm 1 mps 732 mmHg 80%
09:00 +29°C° 0 mm 2 mps 733 mmHg 71%
10:00 +30°C° 0.1 mm 2 mps 732 mmHg 65%
11:00 +31°C° 0.1 mm 2 mps 732 mmHg 60%
12:00 +32°C° 0.1 mm 2 mps 731 mmHg 54%
13:00 +32°C° 0 mm 2 mps 730 mmHg 54%
14:00 +32°C° 0 mm 2 mps 730 mmHg 55%
15:00 +32°C° 0 mm 1 mps 729 mmHg 55%
16:00 +31°C° 0 mm 1 mps 729 mmHg 60%
17:00 +29°C° 0 mm 1 mps 730 mmHg 64%
18:00 +28°C° 0 mm 1 mps 730 mmHg 69%
19:00 +27°C° 0 mm 1 mps 730 mmHg 71%
20:00 +27°C° 0 mm 1 mps 731 mmHg 72%
21:00 +24°C° 0 mm 0 mps 731 mmHg 74%
22:00 +25°C° 0.1 mm 1 mps 731 mmHg 79%
23:00 +25°C° 0.1 mm 1 mps 731 mmHg 83%
Show more